CW0880 Weather Reports


time (UTC)temp
F
wind
direction
speed
knots
gust
knots
rain 1hr
in
rain 24hr
in
rain mn
in
humidity
%
barometer
mb
20260506162208 65 241 4.3 8.7 0.00 0.00 0.00 75 1009.1
20260506160706 68 253 5.2 9.6 0.00 0.00 0.00 65 1009.0
20260506155204 69 230 6.1 11.3 0.00 0.00 0.00 63 1009.3
20260506153305 68 232 2.6 8.7 0.00 0.00 0.00 66 1008.9
20260506151804 67 198 3.5 8.7 0.00 0.00 0.00 69 1009.4
20260506150304 65 176 1.7 2.6 0.00 0.00 0.00 70 1009.4
20260506144757 63 172 3.5 4.3 0.00 0.00 0.00 72 1009.5
20260506143254 62 155 3.5 5.2 0.00 0.00 0.00 74 1009.4
20260506141754 62 100 1.7 6.1 0.00 0.00 0.00 75 1009.2
20260506140251 62 151 4.3 5.2 0.00 0.00 0.00 75 1009.3
20260506134747 63 108 3.5 6.1 0.00 0.00 0.00 73 1009.5
20260506133243 64 110 4.3 5.2 0.00 0.00 0.00 71 1009.5
20260506131741 64 135 3.5 4.3 0.00 0.00 0.00 71 1009.7
20260506130237 64 158 1.7 4.3 0.00 0.00 0.00 74 1009.4
20260506124736 65 195 4.3 7.0 0.00 0.00 0.00 72 1009.6
20260506123235 65 207 5.2 7.0 0.00 0.00 0.00 72 1009.6
20260506121733 66 197 8.7 12.2 0.00 0.00 0.00 71 1009.4
20260506120230 66 202 7.8 10.4 0.00 0.00 0.00 72 1009.8
20260506114729 65 209 3.5 5.2 0.00 0.00 0.00 73 1009.9
20260506113228 64 181 2.6 7.0 0.00 0.00 0.00 75 1009.9
20260506111725 64 217 3.5 7.8 0.00 0.00 0.00 75 1009.8
20260506110223 64 230 5.2 7.8 0.00 0.00 0.00 77 1009.9
20260506104720 64 181 7.8 10.4 0.00 0.00 0.00 77 1010.0
20260506103217 63 188 3.5 5.2 0.00 0.00 0.00 79 1009.5
20260506101715 63 177 3.5 9.6 0.00 0.00 0.00 79 1009.7
20260506100214 63 248 1.7 9.6 0.00 0.00 0.00 79 1009.6
20260506094711 63 192 5.2 6.1 0.00 0.00 0.00 80 1009.4
20260506093210 63 174 4.3 6.1 0.00 0.00 0.00 79 1009.3
20260506091709 63 159 1.7 7.0 0.00 0.00 0.00 79 1009.6
20260506090206 62 205 2.6 3.5 0.00 0.00 0.00 81 1009.8
20260506084702 60 103 3.5 5.2 0.00 0.00 0.00 82 1009.9
20260506083159 62 133 2.6 7.8 0.00 0.00 0.00 81 1009.6
20260506081654 60 177 3.5 5.2 0.00 0.00 0.00 83 1009.7
20260506080151 59 138 2.6 4.3 0.00 0.00 0.00 83 1009.9
20260506073147 63 182 3.5 9.6 0.00 0.00 0.00 78 1010.0
20260506071645 64 221 7.8 8.7 0.00 0.00 0.00 77 1009.9
20260506070142 64 184 9.6 9.6 0.00 0.00 0.00 77 1010.0
20260506061632 61 177 4.3 4.3 0.00 0.00 0.00 79 1009.8
20260506060131 58 152 3.5 3.5 0.00 0.00 0.00 80 1010.1
20260506050121 62 139 3.5 3.5 0.00 0.00 0.00 74 1010.5
20260506044619 64 188 2.6 4.3 0.00 0.00 0.00 71 1010.3
20260506043117 66 201 3.5 8.7 0.00 0.00 0.00 68 1010.3
20260506041611 66 178 4.3 5.2 0.00 0.00 0.00 67 1010.3
20260506040108 67 184 7.0 7.8 0.00 0.00 0.00 67 1010.1
20260506034605 67 190 5.2 9.6 0.00 0.00 0.00 67 1010.4
20260506033101 67 218 3.5 11.3 0.00 0.00 0.00 66 1010.4
20260506031559 67 168 3.5 6.1 0.00 0.00 0.00 65 1010.2
20260506030057 67 246 7.0 9.6 0.00 0.00 0.00 64 1010.2
20260506024553 67 239 1.7 5.2 0.00 0.00 0.00 64 1010.2
20260506023049 67 198 2.6 9.6 0.00 0.00 0.00 63 1010.3
20260506021547 66 227 5.2 6.1 0.00 0.00 0.00 64 1010.2
20260506020044 64 250 1.7 4.3 0.00 0.00 0.00 67 1010.1
20260506014542 61 121 3.5 4.3 0.00 0.00 0.00 70 1010.2
20260506013038 65 179 3.5 11.3 0.00 0.00 0.00 66 1010.0
20260506011535 65 169 5.2 8.7 0.00 0.00 0.00 65 1009.9
20260506010032 61 111 3.5 5.2 0.00 0.00 0.00 71 1009.7
20260506004528 63 128 1.7 5.2 0.00 0.00 0.00 69 1009.4
20260506003023 63 145 3.5 6.1 0.00 0.00 0.00 68 1009.4
20260506001524 62 145 2.6 6.1 0.00 0.00 0.00 69 1009.1
20260506000022 62 176 4.3 5.2 0.00 0.00 0.00 71 1009.2
20260505234519 65 183 1.7 7.0 0.00 0.00 0.00 65 1008.7
20260505233016 66 224 1.7 6.1 0.00 0.00 0.00 65 1008.5
20260505231514 67 158 3.5 3.5 0.00 0.00 0.00 63 1008.1
20260505230012 66 168 2.6 4.3 0.00 0.00 0.00 65 1008.0
20260505224507 65 177 2.6 4.3 0.00 0.00 0.00 68 1008.0
20260505223004 65 246 1.7 7.0 0.00 0.00 0.00 67 1007.9
20260505221459 66 143 2.6 5.2 0.00 0.00 0.00 66 1007.5
20260505215956 70 133 5.2 8.7 0.00 0.00 0.00 60 1007.6
20260505214455 70 189 1.7 7.8 0.00 0.00 0.00 60 1007.5
20260505212952 69 161 4.3 7.8 0.00 0.00 0.00 61 1007.7
20260505211448 69 119 1.7 10.4 0.00 0.00 0.00 61 1007.7
20260505205944 71 192 3.5 9.6 0.00 0.00 0.00 55 1007.3
20260505204443 71 128 3.5 12.2 0.00 0.00 0.00 55 1007.4
20260505202938 68 139 5.2 7.8 0.00 0.00 0.00 61 1007.5
20260505201434 69 161 4.3 11.3 0.00 0.00 0.00 59 1007.7
20260505195930 70 145 5.2 8.7 0.00 0.00 0.00 59 1007.8
20260505194428 67 165 3.5 8.7 0.00 0.00 0.00 64 1008.0
20260505192923 67 183 3.5 9.6 0.00 0.00 0.00 65 1008.2
20260505191423 65 190 2.6 8.7 0.00 0.00 0.00 68 1008.3
20260505185922 66 122 5.2 10.4 0.00 0.00 0.00 65 1008.7
20260505184419 67 168 11.3 13.9 0.00 0.00 0.00 64 1009.3
20260505182915 66 169 2.6 12.2 0.00 0.00 0.00 66 1009.3
20260505181412 67 158 8.7 10.4 0.00 0.00 0.00 65 1009.4
20260505175907 65 140 5.2 9.6 0.00 0.00 0.00 66 1009.6
20260505174404 66 136 2.6 8.7 0.00 0.00 0.00 65 1009.5
20260505172859 65 128 5.2 11.3 0.00 0.00 0.00 67 1009.7
20260505171359 67 124 3.5 7.0 0.00 0.00 0.00 63 1010.0
20260505165854 67 165 3.5 5.2 0.00 0.00 0.00 63 1009.9
20260505164354 67 128 3.5 7.8 0.00 0.00 0.00 64 1010.2
20260505162849 69 156 2.6 4.3 0.00 0.00 0.00 59 1010.3